sat.trackr.live / text

‹ back to catalog

COSMOS 2602

NORAD 67676 · 2026-023C

PAYLOAD ACTIVE UNKNOWN

§ Identity

Operator
Country
CIS
Launch date
2026-02-05
Launch site
PLMSC
Launch vehicle
Mass (kg)
RCS (m²)

External: N2YO · Heavens-Above · Gunter

§ Orbital elements

Epoch: 2026-09-18T21:23:20.613984Z

Period
94.36 min
Inclination
96.6256°
Eccentricity
0.0018448
Mean motion
15.26047549 rev/d
Perigee alt
475.0 km
Apogee alt
500.3 km
Semi-major
6,865.8 km
B*
2.0701e-4
RAAN
312.8423°
Arg perigee
147.1287°
Mean anomaly
213.1105°
Rev number
3,429

§ Raw data

COSMOS 26021 67676U 26023C   26261.89121081  .00005294  00000+0  20701-3 0  99942 67676  96.6256 312.8423 0018448 147.1287 213.1105 15.26047549 34290

JSON: /api/v1/satellites/67676 · /tle

For live sub-satellite position, see the globe view (requires WebGL).

§ Visibility from observer

Set your observer location to see the next 7 days of passes ≥ 10°. The values pass through the URL so the page stays shareable.

No JS? Fill the form by hand. The geolocation button needs JavaScript.